Location: Zengebe
(1.4833°N, 32.5167°E)
Time: 21:35:00
(UTC+00:00)

Cosmos 2228 Rocket - Pass Details

Date: 07 June 2020
Orbit: 619 x 651 km, 82.5° (Epoch: 10 July)

Event Time Altitude Azimuth Distance (km) Brightness Sun altitude
Rises 02:58:05 0° 337° (NNW) 2,946 6.6 -11.1°
Reaches altitude 10° 03:00:33 10° 326° (NW) 2,042 5.6 -10.5°
Maximum altitude 03:04:27 28° 266° (W) 1,207 4.0 -9.6°
Drops below altitude 10° 03:08:22 10° 207° (SSW) 2,054 5.3 -8.7°
Sets 03:10:53 0° 196° (SSW) 2,967 6.2 -8.2°
